Location: Newark
(48.9358°N, 1.4000°E)
Time: 10:41:01
(UTC+00:00)

N. Korean satellite - Pass Details

Date: 19 October 2019
Orbit: 456 x 506 km, 97.2° (Epoch: 20 November)

Event Time Altitude Azimuth Distance (km) Brightness Sun altitude
Rises 05:11:42 0° 23° (NNE) 2,552 10.5 -12.0°
Reaches altitude 10° 05:14:01 10° 37° (NE) 1,676 9.8 -11.6°
Maximum altitude 05:17:04 25° 95° (E) 1,012 9.2 -11.1°
Drops below altitude 10° 05:20:08 10° 153° (SSE) 1,686 9.7 -10.6°
Sets 05:22:28 0° 166° (SSE) 2,572 10.5 -10.2°
